Temp
2 0 0 0 0 -0 -0 -0 -0 0 -1 -1 -1 -1 -0 0 -0 -0 -0 -0 -0 -0 0 0 0 1 1
1 0 0 -0 -0 -0 -0 -0 -1 -0 -0 -0 -1 -1 -1 -1 -1 -1 -1 -1 -1 -1 -1 -1 -0 -0 0
1 1 -0 -0 -1 -1 -1 -1 -1 -1 -1 -1 -1 -1 -1 -1 -2 -2 -2 -2 -1 -1 -1 -1 -1 -1 -0
1 0 -0 -1 -1 0 -0 -0 -0 -1 -1 -1 -1 -1 -2 -1 -2 -2 -2 -2 -2 -2 -2 -2 -2 -1 -1
1 1 0 -1 -1 -1 -0 -0 -1 -1 -1 -1 -1 -1 -1 -2 -2 -3 -3 -3 -2 -2 -2 -2 -2 -2 -2
1 0 -0 -0 -1 -1 -1 -1 1 -1 -2 -1 -1 -1 -1 -1 -2 -3 -3 -3 -3 -3 -3 -3 -3 -2 -2
0 -0 -1 -1 -2 -2 -2 -1 -1 -2 -2 -1 -1 -1 -1 -2 -2 -3 -3 -3 -3 -3 -3 -3 -3 -3 -2
-1 -1 -1 -2 -2 -2 -2 -2 -2 -2 -3 -2 -1 -2 -2 -2 -2 -3 -3 -3 -3 -3 -3 -3 -3 -3 -3
-2 -2 -2 -3 -3 -3 -3 -3 -1 -2 -3 -3 -2 -3 -3 -2 -3 -3 -3 -3 -4 -3 -3 -3 -3 -3 -3
-3 -3 -3 -3 -3 -3 -3 -3 -2 -2 -3 -4 -3 -4 -3 -2 -3 -3 -4 -4 -4 -4 -4 -4 -4 -4 -4
-3 -3 -3 -3 -4 -4 -4 -3 -3 -3 -4 -4 -5 -4 -4 -4 -4 -3 -4 -4 -4 -4 -4 -4 -4 -4 -4
-3 -3 -3 -4 -4 -4 -4 -4 -4 -4 -5 -5 -5 -5 -6 -5 -4 -4 -5 -4 -4 -5 -5 -5 -5 -4 -4
-3 -3 -3 -3 -4 -4 -5 -5 -5 -5 -5 -5 -6 -6 -6 -6 -5 -5 -5 -5 -4 -5 -5 -5 -5 -4 -4
-3 -3 -3 -4 -4 -5 -5 -5 -6 -6 -6 -6 -6 -6 -6 -6 -6 -6 -5 -5 -5 -6 -6 -5 -5 -5 -5
-4 -4 -4 -5 -5 -5 -5 -5 -6 -5 -6 -6 -6 -6 -6 -6 -7 -6 -5 -5 -6 -6 -6 -5 -5 -5 -5
-4 -5 -5 -5 -5 -5 -6 -6 -6 -5 -6 -6 -6 -7 -6 -6 -6 -6 -6 -6 -6 -6 -6 -6 -6 -5 -6
-5 -5 -5 -5 -5 -6 -6 -6 -6 -6 -6 -6 -7 -7 -6 -7 -5 -6 -6 -6 -7 -7 -7 -7 -7 -6 -6
Height
899 901 902 903 903 904 904 905 905 902 901 900 898 897 895 894 891 888 886 883 879 875 872 869 864 859 854
897 898 901 901 902 903 903 903 904 902 901 899 898 896 895 894 892 890 887 884 880 876 873 869 865 860 855
894 897 898 900 901 901 902 902 903 901 900 899 898 897 895 894 893 891 888 884 880 877 874 870 866 861 856
891 894 896 898 899 900 901 901 902 901 900 899 897 897 896 894 893 890 887 884 881 878 875 871 866 862 857
889 891 893 895 896 897 899 900 900 900 898 899 897 897 896 894 892 890 887 885 882 878 875 871 866 862 857
886 888 890 893 894 895 896 897 898 898 897 897 895 896 895 893 891 890 886 884 881 877 875 871 867 862 857
883 886 887 889 891 894 894 895 896 896 896 895 895 894 893 892 890 889 886 884 880 878 875 871 867 863 858
879 881 884 887 890 892 893 892 893 895 895 895 894 893 891 890 888 888 885 883 880 877 875 871 867 862 858
877 879 882 884 886 888 891 892 891 893 894 893 892 890 889 889 888 887 885 882 880 878 875 872 868 863 857
875 878 879 883 885 886 889 889 889 893 893 893 891 891 889 888 887 886 884 882 880 878 875 872 868 863 858
873 875 878 880 883 884 886 888 888 890 890 890 890 890 890 888 886 885 883 881 879 877 874 871 868 864 859
869 871 874 877 880 882 883 885 886 888 888 888 889 890 890 888 887 884 882 880 879 876 874 870 867 864 861
864 868 871 874 877 880 881 882 884 886 886 886 887 888 888 888 887 885 882 879 878 876 873 869 867 864 860
861 866 869 871 873 876 878 880 882 883 884 884 885 885 886 886 886 884 882 881 878 875 873 870 867 865 862
858 861 864 867 871 873 875 877 879 881 882 882 883 884 884 883 883 882 881 880 877 875 872 869 867 864 861
852 856 860 864 867 869 872 874 876 878 879 881 882 883 882 881 880 880 880 878 876 874 872 869 865 862 859
848 852 857 860 864 866 868 870 872 875 876 878 880 880 880 880 880 879 878 877 875 873 871 869 865 861 858
Wind_Speed
10 10 7 5 3 2 1 1 4 6 7 9 11 11 10 13 14 16 18 20 23 24 25 26 28 29 29
11 11 9 8 6 4 3 2 2 4 5 6 7 9 9 10 12 15 18 19 21 24 25 26 28 28 29
10 12 10 8 6 5 3 2 2 4 5 5 5 7 7 7 10 14 17 19 21 23 24 25 27 28 28
11 13 10 9 8 7 6 3 4 1 4 6 6 7 8 6 8 14 16 19 20 22 23 24 27 27 27
12 12 12 9 10 8 6 4 5 3 3 3 3 4 6 5 6 13 16 18 19 21 22 24 26 27 26
13 14 13 11 10 7 6 4 5 3 3 3 4 4 6 7 9 11 16 17 19 20 21 24 25 27 26
14 13 14 13 11 9 7 5 3 3 4 3 4 5 8 6 10 11 15 17 19 18 19 23 24 26 24
16 15 12 13 11 7 7 6 3 3 1 3 5 7 8 5 7 12 15 17 18 17 19 21 24 25 23
11 12 12 13 12 9 6 5 4 4 2 2 4 9 4 2 5 11 13 15 16 16 19 20 24 23 24
14 13 13 12 10 10 7 7 4 4 5 1 3 6 4 1 10 12 16 14 14 16 18 20 22 25 25
16 13 13 12 12 11 9 8 6 5 4 2 1 3 3 6 9 6 14 16 15 18 19 20 20 21 24
18 17 17 15 13 12 11 10 9 8 6 3 3 1 2 5 5 12 14 14 11 20 21 21 20 20 19
19 18 18 16 14 13 11 10 9 7 6 4 4 4 2 5 8 10 14 16 12 17 21 21 21 21 24
18 17 17 16 17 15 13 11 8 6 6 5 4 4 4 5 8 11 9 9 15 18 18 18 19 18 20
19 18 18 17 16 15 13 13 9 10 8 5 5 6 8 8 8 5 9 10 14 16 17 19 19 19 22
21 18 17 17 16 16 15 13 11 10 9 8 7 4 4 4 4 6 6 10 14 15 15 18 20 24 23
21 19 18 18 17 16 15 14 12 10 10 8 7 4 2 2 3 7 7 13 13 14 14 16 20 25 22
Wind_Direction
191 192 180 180 191 152 85 128 323 11 30 30 28 28 25 26 20 15 14 11 10 8 6 5 2 1 0
179 189 197 190 197 184 187 198 193 345 16 26 27 25 24 21 18 17 13 10 7 5 5 4 1 0 359
163 189 192 196 199 199 204 222 211 349 0 354 9 16 19 29 16 11 8 6 3 3 1 1 360 358 358
177 179 189 202 189 203 210 212 220 289 335 329 4 1 358 13 8 6 1 360 360 360 358 357 356 356 356
175 178 189 196 197 196 199 212 226 247 332 287 338 340 339 352 353 7 359 355 357 357 357 356 354 354 356
189 192 198 200 198 190 193 206 196 234 322 298 319 336 333 321 336 351 358 359 358 356 356 356 354 353 356
199 203 194 195 192 189 185 188 208 278 327 273 299 330 329 331 326 351 358 358 358 357 355 354 354 353 355
206 196 197 192 188 193 194 196 219 223 340 275 322 328 330 328 341 349 355 356 357 357 355 354 354 353 354
194 186 178 183 184 187 197 194 195 192 239 328 330 330 334 341 332 347 351 353 354 357 355 356 355 354 360
184 184 188 196 199 190 211 204 183 217 215 312 333 356 335 296 334 347 346 351 352 354 355 356 356 356 357
189 191 192 201 208 206 205 201 196 216 223 247 262 356 343 321 321 331 348 350 351 351 353 354 356 358 355
191 190 192 199 206 204 198 194 201 194 225 226 165 306 316 309 327 328 343 350 348 349 348 352 357 357 357
192 196 197 199 198 195 198 198 206 210 213 217 186 240 267 276 302 324 341 343 343 347 347 354 352 355 352
194 198 191 191 192 195 190 197 193 204 207 219 225 255 263 274 295 304 329 333 335 341 346 349 352 354 349
195 188 181 190 195 192 191 190 191 192 204 223 228 256 268 276 282 287 313 326 330 338 344 340 345 346 344
183 179 182 190 191 190 191 195 196 198 197 205 225 264 322 314 261 275 311 319 330 336 337 333 330 344 346
182 185 191 193 196 190 193 195 201 201 203 205 215 208 252 260 281 291 287 316 326 327 329 330 321 331 338